Weather in Sheltozero

Russia / Republic of Karelia     61°22′15″N   35°21′27″E
temp.,
°C
wind,
m/s
gust,
m/s
humid.,
%
clouds,
%
prec.,
mm/h
press.,
hPa
HPBL,
m
28 july, wed
wed2800:00+15ene276881 0.0 1017114
03:00+13se22795 0.1 101727
06:00+15ese157486 0.0 1015130
09:00+22s235448 0.0 1014433
12:00+27s1342100 0.0 10121323
15:00+28wsw233287 0.0 10102684
18:00+24se1252100 0.0 100885
21:00+20se1165100 0.0 100711
29 july, thu
thu2900:00+19wsw2871100 0.0 1006216
03:00+17s1388100 0.2 100591
06:00+16sw1296100 0.6 100474
09:00+19se128535 0.9 1003338
12:00+22sse247395 1.4 1001963
15:00+20wsw3990100 6.2 1000806
18:00+20w41080100 0.8 999967
21:00+17wsw3978100 0.9 999475
30 july, fri
fri3000:00+16sw399027 0.0 999276
03:00+15sw3119745 0.0 999329
06:00+15wsw3108983 0.0 999365
09:00+21wsw48625 0.0 999895
12:00+23wsw574943 0.1 9991819
15:00+24wsw5740100 0.1 9982201
18:00+21ssw375910 0.4 998738
21:00+17sw386498 0.4 998234
31 july, sat
sat3100:00+14ssw2684100 0.0 998128
03:00+12s2893100 0.0 998175
06:00+13ssw288552 0.1 997285
09:00+19sw46589 0.1 996852
12:00+18ssw555647 0.1 9961366
15:00+17sw357098 0.1 998905
18:00+19sw346959 0.1 998996
21:00+15sw22872 0.1 99921
1 august, sun
sun100:00+13sw279597 0.0 1000141
03:00+12sw249494 0.0 100182
06:00+13sw268697 0.0 1001156
09:00+20ssw345995 0.0 1000466
12:00+20ssw3669100 0.4 1000649
15:00+20sw478039 1.4 999938
18:00+19wsw39855 1.6 999969
21:00+16sw3119243 2.4 1000426